FENGYUN 2A DEB, 43355

Orbit data source: Space-Track

FENGYUN 2A DEB, 43355 is space debris in GEO originally from a launch on Tue, 10 Jun 1997 UTC launched from the Xichang Space Center, China (XSC). Debris objects in space refer to the collection of defunct objects orbiting the Earth. Examples of debris include non-operational satellites, rocket bodies, and fragments generated from explosions, collisions, or faulty payload assembly.

Not visible in the next 10 days
Identifier
43355, 1997-029D
Orbit
GEO
Country
Flag of CNCN / PRC
Related business
Manufacturer
SISE
Mission
Spacecraft
Bus & Motor
Unknown
Mass
Unknown
Launch date (UTC)
1997-06-10 (29 years ago)
Launch vehicle
Unknown
Launch site
Xichang Space Center, China (XSC)
Object type
Payload
Rocket body
Debris
Shape & HBR
Cyl, 0.3 m
Radar Cross Section
0.137 m², Medium (>0.1 m² and < 1m²)

Expand to show TLE details & history
Last TLE update: 4 days ago

TLE from 4 days ago
0 FENGYUN 2A DEB
1 43355U 97029D   26168.97107868 -.00000410  00000-0  00000-0 0  9992
2 43355  14.8506 356.9647 0113937  46.7735 314.1721  1.00302557 42617
Epoch: 2026-06-17T23:18Z
TLE epoch observation values (Epoch: 2026-06-17T23:18:21.197Z)
Latitude
-0°
Longitude
101.15576°
Altitude
35,447.425 km
Speed
3.099 km/s
True Right ascension
23h 47m 51s
True Declination
0° 00' 00"
Sunlit
Object was in daylight at epoch
Visualization orbit readout
Latitude
Unknown
Longitude
Unknown
Altitude
Unknown
Speed
Unknown
Apparent Right ascension
Unknown
Apparent Declination
Unknown
Sunlit
N/A
Visualization observer readout
Local Sidereal Time
21:25:06
Azimuth
Unknown
Elevation
Unknown
Doppler factor
Unknown
Orbital elements
Apogee altitude
36,259.264 km
Perigee altitude
35,298.613 km
Semi-major axis
42,157.075 km
Eccentricity
0.01139
Inclination
14.8506°
RAAN
356.9647°
Arg. of periapsis
46.7735°
True anomaly
313.2263°
Mean anomaly
314.1721°
Eccentric anomaly
313.70014°
Mean motion
0.25075 °/min
Orbital period
1,435.7 mins
BSTAR
0
Loading maneuver chart data...
Computing Atmospheric mass density...
Loading historical data...
Loading historical data...
Loading historical data...
Loading historical data...
Loading historical data...
Loading historical data...
Loading historical data...
Other satellites on launch #29 in the year 1997 (1997-06-10 UTC)

Documentation

Showing up to 5 results
|